(339238) = 2004 VG1

Discovered at Kitt Peak on 2004-11-04 by Spacewatch.

Orbit

Orbit type: Main Belt

Note: WebGL enabled browser required.

epoch2024-03-31.0
epoch JD2460400.5
perihelion date2021-05-01.03409
perihelion JD2459335.53409
argument of perihelion (°)246.26308
ascending node (°)49.11642
inclination (°)13.49590
eccentricity0.2104317
perihelion distance (AU)2.1164198
Tisserand w.r.t. Jupiter3.3
ΔV w.r.t. Earth (km/sec)10.0
semimajor axis (AU)2.6804774
mean anomaly (°)239.17805
mean daily motion (°/day)0.22458750
aphelion distance (AU)3.245
period (years)4.39
P-vector [x]0.40950109
P-vector [y]-0.72877699
P-vector [z]-0.54881049
Q-vector [x]0.89508503
Q-vector [y]0.43728682
Q-vector [z]0.08719534
absolute magnitude16.06
phase slope0.15
uncertainty0
referenceMPEC 2024-E179
observations used438
oppositions14
arc length (days)7091
first opposition used2004
last opposition used2024
residual rms (arc-secs)0.72
perturbers coarse indicatorM-v
perturbers precise indicator003Ek
first observation date used2004-10-13.0
last observation date used2024-03-13.0
computer nameMPCLINUX
JD of orbit computation2456639.584236
perihelion JD uncertainty (days)1.4201E-04
argument of perihelion uncertainty (°)4.7085E-05
ascending node uncertainty (°)3.3926E-05
inclination uncertainty (°)1.5144E-05
eccentricity uncertainty 9.9478E-08
perihelion distance uncertainty (AU)2.7439E-07
Minimum Orbit Intersection Distances (in AU)
for orbit epoch: 2460400.5, reference: E2024-G77
Mercury1.66894
Venus1.40583
Earth1.14161
Mars0.73009
Jupiter2.05533
Saturn5.9259
Uranus15.4251
Neptune26.8767

Observations

450 total observations over interval: 2004 10 13.42126 – 2024 03 13.259213
These data are available for download (format description).

Date (UT) J2000 RA J2000 Dec Magn Location Ref
2004 10 13.42126 03 30 43.93 +16 29 52.6 20.5 V 691 – Steward Observatory, Kitt Peak-Spacewatch MPS 155936
2004 10 13.44873 03 30 42.68 +16 29 54.7 20.6 V 691 – Steward Observatory, Kitt Peak-Spacewatch MPS 155936
2004 10 13.47554 03 30 41.48 +16 29 56.7 20.5 V 691 – Steward Observatory, Kitt Peak-Spacewatch MPS 155936
2004 11 04.14339 03 10 21.36 +16 46 19.1 20.7 V 691 – Steward Observatory, Kitt Peak-Spacewatch MPS 118748
2004 11 04.16978 03 10 19.62 +16 46 19.0 20.4 V 691 – Steward Observatory, Kitt Peak-Spacewatch MPS 118748
2004 11 04.19576 03 10 17.92 +16 46 19.9 20.0 V 691 – Steward Observatory, Kitt Peak-Spacewatch MPS 118748
2004 11 04.87994 03 09 33.75 +16 46 29.9 19.4 V 104 – San Marcello Pistoiese MPS 118748
2004 11 04.88216 03 09 33.61 +16 46 30.0 20.0 V 104 – San Marcello Pistoiese MPS 118748
2004 11 04.88541 03 09 33.39 +16 46 29.8 19.7 V 104 – San Marcello Pistoiese MPS 118748
2004 11 04.89082 03 09 33.02 +16 46 30.2 20.5 V 104 – San Marcello Pistoiese MPS 118748
2004 11 04.89701 03 09 32.61 +16 46 30.3 20.0 V 104 – San Marcello Pistoiese MPS 118748
2004 11 09.23799 03 04 50.95 +16 47 22.4 19.0 R 695 – Kitt Peak MPS 155936
2004 11 09.33027 03 04 44.91 +16 47 23.2   695 – Kitt Peak MPS 155936
2004 11 19.25370 02 54 16.19 +16 48 17.0 19.3 R 703 – Catalina Sky Survey MPS 155936
2004 11 19.25425 02 54 16.12 +16 48 18.3 19.5 R 703 – Catalina Sky Survey MPS 155936
2004 11 19.26197 02 54 15.63 +16 48 17.2 19.3 R 703 – Catalina Sky Survey MPS 155936
2004 11 19.26250 02 54 15.53 +16 48 17.0 19.1 R 703 – Catalina Sky Survey MPS 155936
2004 11 19.27024 02 54 15.26 +16 48 18.0 19.5 R 703 – Catalina Sky Survey MPS 155936
2004 11 19.27078 02 54 15.06 +16 48 16.8 19.4 R 703 – Catalina Sky Survey MPS 155936
2004 11 19.27858 02 54 14.61 +16 48 16.7 19.5 R 703 – Catalina Sky Survey MPS 155936
2004 11 19.27910 02 54 14.50 +16 48 15.0 19.1 R 703 – Catalina Sky Survey MPS 155936
2004 12 15.06205 02 34 35.70 +17 02 13.9 20.6 V 691 – Steward Observatory, Kitt Peak-Spacewatch MPS 155936
2004 12 15.07814 02 34 35.27 +17 02 15.0 20.8 V 691 – Steward Observatory, Kitt Peak-Spacewatch MPS 155936
2004 12 15.09400 02 34 34.79 +17 02 16.3 20.5 V 691 – Steward Observatory, Kitt Peak-Spacewatch MPS 155936
2007 04 16.26345 13 17 46.50 +03 29 19.5 20.4 V 703 – Catalina Sky Survey MPS 208083
2007 04 16.26942 13 17 46.28 +03 29 20.4 19.5 V 703 – Catalina Sky Survey MPS 208083
2007 04 16.27542 13 17 45.85 +03 29 20.0 21.2 V 703 – Catalina Sky Survey MPS 208083
2007 04 16.28145 13 17 45.49 +03 29 20.9 21.1 V 703 – Catalina Sky Survey MPS 208083
2007 04 20.24436 13 13 46.58 +03 32 00.1 19.0 R 699 – Lowell Observatory-LONEOS MPS 208083
2007 04 20.26538 13 13 45.32 +03 32 00.8   699 – Lowell Observatory-LONEOS MPS 208083
2007 04 20.28638 13 13 44.06 +03 32 00.6   699 – Lowell Observatory-LONEOS MPS 208083
2007 04 20.30740 13 13 42.68 +03 32 02.3   699 – Lowell Observatory-LONEOS MPS 208083
2007 04 26.17343 13 08 02.22 +03 31 19.3 20.0 V G96 – Mt. Lemmon Survey MPS 208083
2007 04 26.17904 13 08 01.89 +03 31 19.9 20.4 V G96 – Mt. Lemmon Survey MPS 208083
2007 04 26.18456 13 08 01.57 +03 31 19.1 20.2 V G96 – Mt. Lemmon Survey MPS 208083
2007 04 26.19009 13 08 01.24 +03 31 19.3 20.2 V G96 – Mt. Lemmon Survey MPS 208083
2008 09 20.44118 00 55 01.12 -12 22 59.7 19.4 V 703 – Catalina Sky Survey MPS 256690
2008 09 20.44843 00 55 00.66 -12 23 01.6 18.7 V 703 – Catalina Sky Survey MPS 256690
2008 09 20.45564 00 55 00.30 -12 23 02.9 18.7 V 703 – Catalina Sky Survey MPS 256690
2008 09 20.46289 00 54 59.86 -12 23 06.9 18.7 V 703 – Catalina Sky Survey MPS 256690
2008 10 02.31099 00 42 52.63 -12 35 42.6 18.7 V 703 – Catalina Sky Survey MPS 259251
2008 10 02.31953 00 42 52.12 -12 35 43.0 18.9 V 703 – Catalina Sky Survey MPS 259251
2008 10 02.32799 00 42 51.55 -12 35 42.3 19.1 V 703 – Catalina Sky Survey MPS 259251
2008 10 02.33653 00 42 51.04 -12 35 43.5 19.0 V 703 – Catalina Sky Survey MPS 259251
2008 10 09.22302 00 35 51.25 -12 30 28.7 19.4 V 703 – Catalina Sky Survey MPS 259251
2008 10 09.23131 00 35 50.82 -12 30 29.2 18.8 V 703 – Catalina Sky Survey MPS 259251
2008 10 09.23955 00 35 50.35 -12 30 29.4 19.2 V 703 – Catalina Sky Survey MPS 259251
2008 10 09.24760 00 35 49.77 -12 30 27.6 20.1 V 703 – Catalina Sky Survey MPS 259251
2009 12 20.26428 06 26 38.58 +36 51 58.7 20.5 V G96 – Mt. Lemmon Survey MPS 308622
2009 12 20.27001 06 26 38.14 +36 51 59.8 20.4 V G96 – Mt. Lemmon Survey MPS 308622
2009 12 20.27582 06 26 37.71 +36 52 00.7 20.1 V G96 – Mt. Lemmon Survey MPS 308623
2009 12 20.28164 06 26 37.35 +36 52 02.5 20.1 V G96 – Mt. Lemmon Survey MPS 308623
2011 03 10.25181 11 22 31.62 +23 58 45.2 20.5 V G96 – Mt. Lemmon Survey MPS 373414
2011 03 10.26224 11 22 30.97 +23 58 47.5 20.6 V G96 – Mt. Lemmon Survey MPS 373414
2011 03 10.27271 11 22 30.36 +23 58 50.0 20.6 V G96 – Mt. Lemmon Survey MPS 373414
2011 03 10.28314 11 22 29.74 +23 58 52.5 20.3 V G96 – Mt. Lemmon Survey MPS 373414
2012 07 21.57534 20 02 35.41 -44 25 04.6 18.4 V E12 – Siding Spring Survey MPS 428644
2012 07 21.58702 20 02 34.65 -44 25 07.8 18.4 V E12 – Siding Spring Survey MPS 428644
2012 07 21.59862 20 02 33.90 -44 25 11.1 18.4 V E12 – Siding Spring Survey MPS 428644
2012 07 21.61024 20 02 33.07 -44 25 13.5 19.3 V E12 – Siding Spring Survey MPS 428644
2012 09 12.49684 19 44 18.09 -41 28 26.5 19.8 V E12 – Siding Spring Survey MPS 431324
2012 09 12.50808 19 44 18.56 -41 28 20.6 20.3 V E12 – Siding Spring Survey MPS 431324
2012 09 12.51932 19 44 19.03 -41 28 15.0 19.9 V E12 – Siding Spring Survey MPS 431324
2012 09 12.53060 19 44 19.21 -41 28 09.5 19.9 V E12 – Siding Spring Survey MPS 431324
2013 10 03.46413 04 53 54.81 +24 44 35.3 20.8 V G96 – Mt. Lemmon Survey MPS 479977
2013 10 03.47118 04 53 54.82 +24 44 37.4 20.7 V G96 – Mt. Lemmon Survey MPS 479977
2013 10 03.47825 04 53 54.79 +24 44 39.3 20.6 V G96 – Mt. Lemmon Survey MPS 479977
2013 10 03.48529 04 53 54.77 +24 44 41.4 21.4 V G96 – Mt. Lemmon Survey MPS 479977
2013 11 08.34877 04 37 17.31 +26 52 11.5 20.0 V 703 – Catalina Sky Survey MPS 487099
2013 11 08.35749 04 37 16.83 +26 52 12.3 20.4 V 703 – Catalina Sky Survey MPS 487099
2013 11 08.37489 04 37 15.76 +26 52 14.4 20.0 V 703 – Catalina Sky Survey MPS 487099
2013 12 01.53585 04 12 35.23 +27 29 39.6 20.5 R D29 – Purple Mountain Observatory, XuYi Station MPS 490922
2013 12 01.55176 04 12 34.19 +27 29 40.2 20.6 R D29 – Purple Mountain Observatory, XuYi Station MPS 490922
2013 12 01.56766 04 12 33.14 +27 29 40.8 20.2 R D29 – Purple Mountain Observatory, XuYi Station MPS 490922
2013 12 03.29671 04 10 38.717 +27 30 33.48 19.8 w F51 – Pan-STARRS 1, Haleakala MPS 490922
2013 12 03.31083 04 10 37.766 +27 30 33.94 19.8 w F51 – Pan-STARRS 1, Haleakala MPS 490922
2013 12 03.32497 04 10 36.816 +27 30 34.40 19.9 w F51 – Pan-STARRS 1, Haleakala MPS 490922
2013 12 03.33915 04 10 35.858 +27 30 34.81 19.8 w F51 – Pan-STARRS 1, Haleakala MPS 490922
2014 12 27.46096 10 01 43.102 +30 31 52.11 21.1 w F51 – Pan-STARRS 1, Haleakala MPS 560850
2014 12 27.48559 10 01 42.776 +30 32 01.93 21.3 w F51 – Pan-STARRS 1, Haleakala MPS 560850
2014 12 27.49787 10 01 42.557 +30 32 06.55 21.2 w F51 – Pan-STARRS 1, Haleakala MPS 560850
2015 03 16.32035 09 00 06.320 +35 25 45.39 21.2 w F51 – Pan-STARRS 1, Haleakala MPS 591992
2015 03 16.33198 09 00 05.958 +35 25 43.26 21.1 w F51 – Pan-STARRS 1, Haleakala MPS 591992
2015 03 16.34362 09 00 05.598 +35 25 41.34 21.1 w F51 – Pan-STARRS 1, Haleakala MPS 591992
2015 03 16.35532 09 00 05.217 +35 25 39.35 21.1 w F51 – Pan-STARRS 1, Haleakala MPS 591992
2015 03 17.29783 08 59 37.675 +35 22 54.40 20.9 w F51 – Pan-STARRS 1, Haleakala MPS 591992
2015 03 17.31311 08 59 37.212 +35 22 51.63 21.1 w F51 – Pan-STARRS 1, Haleakala MPS 591992
2015 03 17.32462 08 59 36.857 +35 22 49.61 20.9 w F51 – Pan-STARRS 1, Haleakala MPS 591992
2015 03 17.33613 08 59 36.516 +35 22 47.64 21.1 w F51 – Pan-STARRS 1, Haleakala MPS 591992
2016 03 04.58462 15 19 08.370 -12 09 56.79 21.0 w F51 – Pan-STARRS 1, Haleakala MPS 692351
2016 03 04.59746 15 19 08.672 -12 09 59.64 21.1 w F51 – Pan-STARRS 1, Haleakala MPS 692351
2016 03 04.61021 15 19 08.974 -12 10 02.29 21.2 w F51 – Pan-STARRS 1, Haleakala MPS 692351
